EW5610 Weather Reports


time (UTC)temp
F
wind
direction
speed
knots
gust
knots
rain 1hr
in
rain 24hr
in
rain mn
in
humidity
%
barometer
mb
20260506161546 61 201 7.0 15.6 0.00 0.00 0.00 79 1008.1
20260506160054 61 215 7.0 20.0 0.00 0.00 0.00 79 1008.1
20260506154544 62 234 4.3 11.3 0.00 0.00 0.00 78 1008.4
20260506153041 62 217 4.3 12.2 0.00 0.00 0.00 77 1008.4
20260506151541 62 207 4.3 14.8 0.00 0.00 0.00 77 1008.5
20260506150049 63 226 7.0 14.8 0.00 0.00 0.00 75 1008.5
20260506144540 62 207 7.0 14.8 0.00 0.00 0.00 76 1008.5
20260506143040 62 232 7.0 16.5 0.00 0.00 0.00 76 1008.6
20260506141542 61 185 3.5 14.8 0.00 0.00 0.00 78 1008.7
20260506140037 61 213 10.4 15.6 0.00 0.00 0.00 77 1008.6
20260506134536 61 225 6.1 17.4 0.00 0.00 0.00 78 1008.5
20260506133042 61 150 8.7 14.8 0.00 0.00 0.00 77 1008.4
20260506131535 61 225 12.2 20.9 0.00 0.00 0.00 78 1008.3
20260506130034 61 207 10.4 19.1 0.00 0.00 0.00 78 1008.6
20260506124531 61 164 5.2 13.9 0.00 0.00 0.00 79 1008.8
20260506123029 60 173 5.2 13.9 0.00 0.00 0.00 80 1009.0
20260506121527 59 212 6.1 16.5 0.00 0.00 0.00 81 1008.7
20260506120047 59 173 5.2 12.2 0.00 0.00 0.00 83 1008.8
20260506114525 59 205 4.3 13.9 0.00 0.00 0.00 84 1008.9
20260506113024 58 187 2.6 12.2 0.00 0.00 0.00 85 1008.9
20260506111523 57 182 5.2 11.3 0.00 0.00 0.00 86 1008.8
20260506110025 57 172 7.8 11.3 0.00 0.00 0.00 87 1009.0
20260506104535 57 205 5.2 10.4 0.00 0.00 0.00 88 1009.0
20260506103036 57 184 3.5 8.7 0.00 0.00 0.00 88 1008.7
20260506101520 56 198 3.5 8.7 0.00 0.00 0.00 88 1008.7
20260506100019 56 202 4.3 7.8 0.00 0.00 0.00 88 1008.6
20260506094518 56 197 4.3 7.8 0.00 0.00 0.00 88 1008.7
20260506093021 56 195 4.3 7.8 0.00 0.00 0.00 87 1008.7
20260506091518 57 193 4.3 10.4 0.00 0.00 0.00 86 1008.7
20260506090015 56 209 4.3 7.0 0.00 0.00 0.00 86 1008.9
20260506084530 56 192 2.6 11.3 0.00 0.00 0.00 86 1009.1
20260506083013 57 217 6.1 12.2 0.00 0.00 0.00 86 1009.2
20260506081512 57 221 6.1 13.9 0.00 0.00 0.00 85 1009.2
20260506073007 58 203 5.2 18.2 0.00 0.00 0.00 83 1009.2
20260506071505 58 220 7.8 13.9 0.00 0.00 0.00 83 1009.2
20260506061558 58 216 2.6 11.3 0.00 0.00 0.00 81 1009.2
20260506044549 59 217 5.2 11.3 0.00 0.00 0.00 79 1009.7
20260506043049 59 199 5.2 13.9 0.00 0.00 0.00 79 1009.7
20260506041556 59 227 6.1 15.6 0.00 0.00 0.00 79 1009.9
20260506040043 59 210 6.1 12.2 0.00 0.00 0.00 78 1009.8
20260506034543 59 175 3.5 9.6 0.00 0.00 0.00 77 1009.8
20260506033041 60 157 7.0 13.9 0.00 0.00 0.00 76 1009.7
20260506031543 60 249 4.3 12.2 0.00 0.00 0.00 75 1009.7
20260506030042 60 217 6.1 17.4 0.00 0.00 0.00 74 1009.7
20260506024541 60 219 6.1 12.2 0.00 0.00 0.00 73 1009.7
20260506023056 60 184 4.3 10.4 0.00 0.00 0.00 72 1009.7
20260506021603 61 190 3.5 14.8 0.00 0.00 0.00 72 1009.5
20260506020039 61 188 4.3 11.3 0.00 0.00 0.00 71 1009.5
20260506014539 61 221 4.3 14.8 0.00 0.00 0.00 71 1009.3
20260506013038 60 207 5.2 9.6 0.00 0.00 0.00 72 1009.2
20260506011540 60 219 5.2 13.0 0.00 0.00 0.00 71 1009.2
20260506010037 61 207 6.1 12.2 0.00 0.00 0.00 71 1009.0
20260506004537 61 238 4.3 13.9 0.00 0.00 0.00 71 1008.7
20260506003038 61 227 7.8 14.8 0.00 0.00 0.00 70 1008.6
20260506001537 61 165 7.0 13.9 0.00 0.00 0.00 70 1008.2
20260506000035 61 168 2.6 16.5 0.00 0.00 0.00 69 1007.9
20260505234536 61 224 7.0 12.2 0.00 0.00 0.00 69 1007.8
20260505233036 61 213 5.2 15.6 0.00 0.00 0.00 69 1007.4
20260505231547 61 198 5.2 12.2 0.00 0.00 0.00 69 1007.1
20260505230035 62 192 1.7 7.0 0.00 0.00 0.00 69 1007.8
20260505224534 62 210 4.3 10.4 0.00 0.00 0.00 68 1007.6
20260505223032 63 212 4.3 13.0 0.00 0.00 0.00 66 1007.6
20260505221534 64 182 5.2 17.4 0.00 0.00 0.00 65 1007.3
20260505220032 64 209 7.8 14.8 0.00 0.00 0.00 64 1007.3
20260505214548 64 203 5.2 12.2 0.00 0.00 0.00 65 1007.1
20260505213037 65 201 8.7 14.8 0.00 0.00 0.00 64 1007.5
20260505211531 66 209 7.8 18.2 0.00 0.00 0.00 63 1007.1
20260505210030 66 190 7.8 19.1 0.00 0.00 0.00 62 1007.0
20260505204529 66 219 9.6 17.4 0.00 0.00 0.00 63 1007.0
20260505203047 66 169 4.3 13.0 0.00 0.00 0.00 65 1006.7
20260505201532 65 232 4.3 13.9 0.00 0.00 0.00 65 1007.1
20260505200026 65 175 6.1 15.6 0.00 0.00 0.00 65 1007.2
20260505194526 67 167 5.2 15.6 0.00 0.00 0.00 64 1007.3
20260505193031 66 196 8.7 15.6 0.00 0.00 0.00 65 1007.5
20260505191523 65 203 9.6 15.6 0.00 0.00 0.00 65 1007.6
20260505190022 66 221 6.1 12.2 0.00 0.00 0.00 65 1007.7
20260505184525 66 166 3.5 12.2 0.00 0.00 0.00 66 1007.6
20260505183022 65 221 9.6 15.6 0.00 0.00 0.00 66 1007.6
20260505181519 65 199 9.6 16.5 0.00 0.00 0.00 67 1007.7
20260505180020 66 175 7.0 14.8 0.00 0.00 0.00 66 1007.8
20260505174527 67 168 7.0 16.5 0.00 0.00 0.00 63 1007.8
20260505173015 67 215 10.4 14.8 0.00 0.00 0.00 62 1008.0
20260505171514 68 223 7.8 14.8 0.00 0.00 0.00 64 1007.8
20260505170018 67 213 7.0 12.2 0.00 0.00 0.00 65 1008.1
20260505164511 67 173 3.5 13.0 0.00 0.00 0.00 65 1008.2
20260505163013 66 229 4.3 12.2 0.00 0.00 0.00 65 1008.3